| time (UTC) | temp C | wind direction | speed KPH | gust KPH | rain 1hr cm | rain 24hr cm | rain mn cm | humidity % | barometer mb |
| 20260508151924 | 6 | 292 | 4.8 | 4.8 | 0.00 | 0.00 | 0.00 | 61 | 1064.8 |
| 20260508150923 | 6 | 250 | 4.8 | 4.8 | 0.00 | 0.00 | 0.00 | 61 | 1064.8 |
| 20260508145921 | 6 | 289 | 3.2 | 3.2 | 0.00 | 0.00 | 0.00 | 59 | 1064.7 |
| 20260508144921 | 6 | 231 | 3.2 | 3.2 | 0.00 | 0.00 | 0.00 | 58 | 1064.4 |
| 20260508143916 | 6 | 234 | 4.8 | 4.8 | 0.00 | 0.00 | 0.00 | 58 | 1064.5 |
| 20260508142915 | 6 | 296 | 6.4 | 8.0 | 0.00 | 0.00 | 0.00 | 59 | 1064.5 |
| 20260508141915 | 6 | 271 | 1.6 | 1.6 | 0.00 | 0.00 | 0.00 | 62 | 1064.7 |
| 20260508140915 | 6 | 332 | 6.4 | 9.7 | 0.00 | 0.00 | 0.00 | 61 | 1064.6 |
| 20260508135913 | 6 | 326 | 6.4 | 9.7 | 0.00 | 0.00 | 0.00 | 62 | 1064.3 |
| 20260508134912 | 6 | 245 | 3.2 | 4.8 | 0.00 | 0.00 | 0.00 | 63 | 1064.4 |
| 20260508133911 | 6 | 283 | 6.4 | 8.0 | 0.00 | 0.00 | 0.00 | 63 | 1064.2 |
| 20260508132906 | 6 | 283 | 0.0 | 1.6 | 0.00 | 0.00 | 0.00 | 65 | 1064.3 |
| 20260508131906 | 5 | 324 | 4.8 | 4.8 | 0.00 | 0.00 | 0.00 | 66 | 1064.2 |
| 20260508130905 | 5 | 279 | 8.0 | 9.7 | 0.00 | 0.00 | 0.00 | 65 | 1064.2 |
| 20260508125903 | 5 | 314 | 4.8 | 4.8 | 0.00 | 0.00 | 0.00 | 70 | 1064.6 |
| 20260508124904 | 5 | 314 | 4.8 | 4.8 | 0.00 | 0.00 | 0.00 | 71 | 1064.5 |
| 20260508123859 | 4 | 286 | 1.6 | 1.6 | 0.00 | 0.00 | 0.00 | 74 | 1064.4 |
| 20260508122859 | 4 | 232 | 8.0 | 9.7 | 0.00 | 0.00 | 0.00 | 76 | 1064.5 |
| 20260508121859 | 3 | 279 | 4.8 | 4.8 | 0.00 | 0.00 | 0.00 | 77 | 1064.5 |
| 20260508120854 | 3 | 309 | 1.6 | 3.2 | 0.00 | 0.00 | 0.00 | 78 | 1064.6 |
| 20260508115849 | 4 | 307 | 1.6 | 3.2 | 0.00 | 0.00 | 0.00 | 81 | 1064.7 |
| 20260508114849 | 3 | 289 | 1.6 | 1.6 | 0.00 | 0.00 | 0.00 | 82 | 1064.6 |
| 20260508113849 | 3 | 263 | 3.2 | 3.2 | 0.00 | 0.00 | 0.00 | 86 | 1064.9 |
| 20260508112849 | 3 | 238 | 8.0 | 11.3 | 0.00 | 0.00 | 0.00 | 86 | 1065.0 |
| 20260508111848 | 2 | 250 | 1.6 | 3.2 | 0.00 | 0.00 | 0.00 | 87 | 1065.0 |
| 20260508110843 | 2 | 251 | 3.2 | 3.2 | 0.00 | 0.00 | 0.00 | 88 | 1065.0 |
| 20260508105840 | 2 | 256 | 1.6 | 1.6 | 0.00 | 0.00 | 0.00 | 89 | 1064.9 |
| 20260508104840 | 2 | 249 | 3.2 | 4.8 | 0.00 | 0.00 | 0.00 | 91 | 1064.9 |
| 20260508103840 | 1 | 252 | 1.6 | 1.6 | 0.00 | 0.00 | 0.00 | 94 | 1064.7 |
| 20260508102840 | 1 | 256 | 1.6 | 1.6 | 0.00 | 0.00 | 0.00 | 96 | 1064.4 |
| 20260508101835 | 0 | 264 | 1.6 | 1.6 | 0.00 | 0.00 | 0.00 | 98 | 1064.7 |
| 20260508100830 | 0 | 277 | 1.6 | 1.6 | 0.00 | 0.00 | 0.00 | 98 | 1064.5 |
| 20260508095829 | 0 | 283 | 1.6 | 1.6 | 0.00 | 0.00 | 0.00 | 97 | 1064.6 |
| 20260508094824 | 0 | 265 | 1.6 | 1.6 | 0.00 | 0.00 | 0.00 | 97 | 1064.5 |
| 20260508093824 | 0 | 264 | 0.0 | 1.6 | 0.00 | 0.00 | 0.00 | 95 | 1064.5 |
| 20260508092819 | 1 | 259 | 1.6 | 1.6 | 0.00 | 0.00 | 0.00 | 94 | 1064.7 |
| 20260508091815 | 1 | 270 | 0.0 | 0.0 | 0.00 | 0.00 | 0.00 | 92 | 1064.3 |
| 20260508090815 | 2 | 259 | 1.6 | 1.6 | 0.00 | 0.00 | 0.00 | 90 | 1064.3 |
| 20260508085814 | 2 | 270 | 0.0 | 1.6 | 0.00 | 0.00 | 0.00 | 90 | 1064.5 |
| 20260508084813 | 2 | 248 | 1.6 | 1.6 | 0.00 | 0.00 | 0.00 | 90 | 1064.5 |
| 20260508083808 | 2 | 264 | 0.0 | 0.0 | 0.00 | 0.00 | 0.00 | 90 | 1064.5 |
| 20260508082805 | 2 | 259 | 0.0 | 0.0 | 0.00 | 0.00 | 0.00 | 89 | 1064.5 |
| 20260508081800 | 2 | 258 | 1.6 | 1.6 | 0.00 | 0.00 | 0.00 | 89 | 1064.2 |
| 20260508080759 | 2 | 259 | 1.6 | 1.6 | 0.00 | 0.00 | 0.00 | 89 | 1064.3 |
| 20260508075759 | 2 | 271 | 0.0 | 0.0 | 0.00 | 0.00 | 0.00 | 90 | 1064.3 |
| 20260508074754 | 1 | 262 | 1.6 | 1.6 | 0.00 | 0.00 | 0.00 | 92 | 1064.2 |
| 20260508073754 | 1 | 256 | 1.6 | 1.6 | 0.00 | 0.00 | 0.00 | 92 | 1063.9 |
| 20260508072753 | 1 | 271 | 0.0 | 0.0 | 0.00 | 0.00 | 0.00 | 92 | 1063.9 |
| 20260508071748 | 1 | 263 | 1.6 | 1.6 | 0.00 | 0.00 | 0.00 | 95 | 1064.2 |
| 20260508070743 | 1 | 283 | 0.0 | 1.6 | 0.00 | 0.00 | 0.00 | 95 | 1063.9 |
| 20260508065738 | 1 | 269 | 0.0 | 1.6 | 0.00 | 0.00 | 0.00 | 95 | 1063.7 |
| 20260508064734 | 0 | 286 | 0.0 | 0.0 | 0.00 | 0.00 | 0.00 | 95 | 1063.7 |
| 20260508063729 | 0 | 286 | 1.6 | 1.6 | 0.00 | 0.00 | 0.00 | 96 | 1063.8 |
| 20260508062729 | 0 | 273 | 0.0 | 0.0 | 0.00 | 0.00 | 0.00 | 96 | 1063.6 |
| 20260508061729 | 0 | 264 | 0.0 | 0.0 | 0.00 | 0.00 | 0.00 | 97 | 1063.7 |
| 20260508060729 | 0 | 271 | 0.0 | 0.0 | 0.00 | 0.00 | 0.00 | 97 | 1063.7 |
| 20260508055727 | 0 | 281 | 0.0 | 0.0 | 0.00 | 0.00 | 0.00 | 97 | 1063.8 |
| 20260508054727 | 0 | 276 | 0.0 | 0.0 | 0.00 | 0.00 | 0.00 | 98 | 1063.6 |
| 20260508053728 | 0 | 274 | 0.0 | 0.0 | 0.00 | 0.00 | 0.00 | 98 | 1063.8 |
| 20260508052727 | 0 | 268 | 0.0 | 0.0 | 0.00 | 0.00 | 0.00 | 98 | 1063.7 |
| 20260508051727 | 0 | 278 | 0.0 | 0.0 | 0.00 | 0.00 | 0.00 | 98 | 1063.9 |
| 20260508050725 | 0 | 286 | 0.0 | 0.0 | 0.00 | 0.00 | 0.00 | 98 | 1063.9 |
| 20260508045723 | 0 | 282 | 0.0 | 0.0 | 0.00 | 0.00 | 0.00 | 98 | 1063.8 |
| 20260508044719 | 0 | 278 | 0.0 | 0.0 | 0.00 | 0.00 | 0.00 | 98 | 1063.8 |
| 20260508043717 | 0 | 277 | 0.0 | 0.0 | 0.00 | 0.00 | 0.00 | 98 | 1064.1 |
| 20260508042717 | -1 | 287 | 1.6 | 1.6 | 0.00 | 0.00 | 0.00 | 98 | 1063.7 |
| 20260508041717 | 0 | 285 | 1.6 | 1.6 | 0.00 | 0.00 | 0.00 | 97 | 1063.6 |
| 20260508040716 | 0 | 287 | 1.6 | 1.6 | 0.00 | 0.00 | 0.00 | 97 | 1063.7 |
| 20260508035711 | 0 | 307 | 1.6 | 1.6 | 0.00 | 0.08 | 0.08 | 96 | 1063.5 |
| 20260508034710 | 0 | 289 | 1.6 | 1.6 | 0.00 | 0.08 | 0.08 | 94 | 1063.7 |
| 20260508033710 | 0 | 292 | 1.6 | 1.6 | 0.00 | 0.08 | 0.08 | 93 | 1063.6 |
| 20260508032706 | 0 | 271 | 0.0 | 1.6 | 0.00 | 0.08 | 0.08 | 92 | 1063.5 |
| 20260508031706 | 0 | 270 | 0.0 | 0.0 | 0.00 | 0.08 | 0.08 | 91 | 1063.9 |
| 20260508030704 | 0 | 279 | 0.0 | 0.0 | 0.00 | 0.08 | 0.08 | 91 | 1063.7 |
| 20260508025704 | 0 | 277 | 0.0 | 0.0 | 0.00 | 0.08 | 0.08 | 91 | 1063.7 |
| 20260508024702 | 1 | 293 | 1.6 | 1.6 | 0.00 | 0.08 | 0.08 | 89 | 1063.6 |
| 20260508023701 | 1 | 284 | 1.6 | 1.6 | 0.00 | 0.08 | 0.08 | 90 | 1063.5 |
| 20260508022700 | 2 | 291 | 1.6 | 1.6 | 0.00 | 0.08 | 0.08 | 87 | 1063.6 |
| 20260508021700 | 2 | 276 | 0.0 | 1.6 | 0.00 | 0.08 | 0.08 | 84 | 1063.9 |
| 20260508020659 | 2 | 277 | 0.0 | 1.6 | 0.00 | 0.08 | 0.08 | 84 | 1063.7 |
| 20260508015654 | 2 | 280 | 0.0 | 0.0 | 0.00 | 0.08 | 0.08 | 81 | 1063.7 |
| 20260508014653 | 2 | 274 | 0.0 | 0.0 | 0.00 | 0.08 | 0.08 | 81 | 1063.8 |
| 20260508013652 | 3 | 291 | 1.6 | 1.6 | 0.00 | 0.08 | 0.08 | 82 | 1063.8 |
| 20260508012646 | 3 | 281 | 0.0 | 1.6 | 0.00 | 0.08 | 0.08 | 77 | 1063.9 |
| 20260508011641 | 3 | 281 | 1.6 | 1.6 | 0.00 | 0.08 | 0.08 | 77 | 1063.7 |
| 20260508010641 | 3 | 278 | 0.0 | 1.6 | 0.00 | 0.08 | 0.08 | 75 | 1063.7 |
| 20260508005641 | 4 | 278 | 1.6 | 1.6 | 0.00 | 0.08 | 0.08 | 74 | 1063.5 |
| 20260508004639 | 4 | 275 | 0.0 | 0.0 | 0.00 | 0.08 | 0.08 | 73 | 1063.5 |
| 20260508003639 | 5 | 264 | 0.0 | 1.6 | 0.00 | 0.08 | 0.08 | 73 | 1063.3 |
| 20260508002638 | 5 | 276 | 0.0 | 0.0 | 0.00 | 0.08 | 0.08 | 74 | 1063.1 |
| 20260508001637 | 6 | 277 | 0.0 | 0.0 | 0.00 | 0.08 | 0.08 | 68 | 1062.8 |
| 20260508000635 | 6 | 287 | 1.6 | 3.2 | 0.00 | 0.08 | 0.08 | 61 | 1063.0 |
| 20260507235635 | 6 | 279 | 0.0 | 0.0 | 0.00 | 0.08 | 0.08 | 59 | 1063.1 |
| 20260507234635 | 7 | 296 | 3.2 | 4.8 | 0.00 | 0.08 | 0.08 | 58 | 1063.1 |
| 20260507233635 | 7 | 304 | 4.8 | 4.8 | 0.00 | 0.08 | 0.08 | 56 | 1063.3 |
| 20260507232635 | 7 | 285 | 1.6 | 1.6 | 0.00 | 0.08 | 0.08 | 55 | 1063.1 |
| 20260507231635 | 7 | 301 | 4.8 | 4.8 | 0.00 | 0.08 | 0.08 | 54 | 1063.2 |
| 20260507230634 | 7 | 285 | 0.0 | 0.0 | 0.00 | 0.08 | 0.08 | 54 | 1063.3 |
| 20260507225631 | 8 | 313 | 4.8 | 4.8 | 0.00 | 0.08 | 0.08 | 54 | 1063.5 |
| 20260507224629 | 8 | 265 | 3.2 | 3.2 | 0.00 | 0.08 | 0.08 | 54 | 1063.3 |
| 20260507223628 | 8 | 303 | 3.2 | 3.2 | 0.00 | 0.08 | 0.08 | 53 | 1063.3 |
| 20260507222627 | 8 | 12 | 6.4 | 9.7 | 0.00 | 0.08 | 0.08 | 51 | 1063.1 |
| 20260507221626 | 8 | 333 | 8.0 | 9.7 | 0.00 | 0.08 | 0.08 | 52 | 1063.4 |
| 20260507220626 | 8 | 309 | 3.2 | 3.2 | 0.00 | 0.08 | 0.08 | 53 | 1063.5 |
| 20260507215625 | 8 | 315 | 3.2 | 3.2 | 0.00 | 0.08 | 0.08 | 52 | 1063.4 |
| 20260507214625 | 8 | 342 | 9.7 | 11.3 | 0.00 | 0.08 | 0.08 | 51 | 1063.3 |
| 20260507213624 | 8 | 316 | 6.4 | 9.7 | 0.00 | 0.08 | 0.08 | 52 | 1063.2 |
| 20260507212623 | 8 | 319 | 8.0 | 11.3 | 0.00 | 0.08 | 0.08 | 53 | 1063.5 |
| 20260507211622 | 8 | 337 | 12.9 | 16.1 | 0.00 | 0.08 | 0.08 | 51 | 1063.5 |
| 20260507210621 | 8 | 286 | 3.2 | 4.8 | 0.00 | 0.08 | 0.08 | 54 | 1063.3 |
| 20260507205620 | 9 | 310 | 12.9 | 14.5 | 0.00 | 0.08 | 0.08 | 49 | 1063.2 |
| 20260507204618 | 8 | 314 | 12.9 | 14.5 | 0.00 | 0.08 | 0.08 | 48 | 1063.4 |
| 20260507203614 | 8 | 249 | 11.3 | 14.5 | 0.00 | 0.08 | 0.08 | 50 | 1063.2 |
| 20260507202612 | 9 | 314 | 8.0 | 11.3 | 0.00 | 0.08 | 0.08 | 49 | 1063.4 |
| 20260507201610 | 10 | 303 | 6.4 | 8.0 | 0.00 | 0.08 | 0.08 | 49 | 1063.0 |
| 20260507200608 | 8 | 348 | 8.0 | 11.3 | 0.00 | 0.08 | 0.08 | 52 | 1063.3 |
| 20260507195608 | 8 | 273 | 1.6 | 1.6 | 0.00 | 0.08 | 0.08 | 51 | 1063.4 |
| 20260507194607 | 9 | 227 | 17.7 | 24.1 | 0.00 | 0.08 | 0.08 | 50 | 1063.3 |
| 20260507193606 | 8 | 298 | 12.9 | 14.5 | 0.00 | 0.08 | 0.08 | 51 | 1063.5 |
| 20260507192605 | 8 | 332 | 8.0 | 9.7 | 0.00 | 0.08 | 0.08 | 51 | 1063.6 |
| 20260507191603 | 8 | 274 | 6.4 | 8.0 | 0.00 | 0.08 | 0.08 | 53 | 1063.8 |
| 20260507190603 | 8 | 230 | 9.7 | 14.5 | 0.00 | 0.08 | 0.08 | 53 | 1063.8 |
| 20260507185600 | 8 | 303 | 6.4 | 9.7 | 0.00 | 0.08 | 0.08 | 53 | 1064.1 |
| 20260507184555 | 8 | 305 | 6.4 | 8.0 | 0.00 | 0.08 | 0.08 | 53 | 1063.8 |
| 20260507183554 | 8 | 340 | 8.0 | 9.7 | 0.00 | 0.08 | 0.08 | 57 | 1063.9 |
| 20260507182553 | 9 | 323 | 4.8 | 8.0 | 0.00 | 0.08 | 0.08 | 57 | 1063.8 |
| 20260507181552 | 7 | 322 | 4.8 | 8.0 | 0.00 | 0.08 | 0.08 | 58 | 1064.2 |
| 20260507180551 | 8 | 337 | 4.8 | 4.8 | 0.00 | 0.08 | 0.08 | 56 | 1063.7 |
| 20260507175550 | 7 | 282 | 3.2 | 4.8 | 0.00 | 0.08 | 0.08 | 57 | 1063.8 |
| 20260507174550 | 8 | 244 | 11.3 | 14.5 | 0.00 | 0.08 | 0.08 | 55 | 1063.7 |
| 20260507173545 | 8 | 331 | 8.0 | 9.7 | 0.00 | 0.08 | 0.08 | 58 | 1064.1 |
| 20260507172544 | 8 | 242 | 19.3 | 24.1 | 0.00 | 0.08 | 0.08 | 57 | 1064.1 |
| 20260507171542 | 8 | 320 | 3.2 | 4.8 | 0.00 | 0.08 | 0.08 | 60 | 1064.1 |
| 20260507170542 | 8 | 275 | 4.8 | 4.8 | 0.00 | 0.08 | 0.08 | 62 | 1063.9 |
| 20260507165541 | 7 | 323 | 11.3 | 12.9 | 0.00 | 0.08 | 0.08 | 62 | 1064.2 |
| 20260507164539 | 7 | 299 | 8.0 | 12.9 | 0.00 | 0.08 | 0.08 | 64 | 1064.6 |
| 20260507163534 | 6 | 254 | 3.2 | 4.8 | 0.00 | 0.08 | 0.08 | 67 | 1064.6 |
| 20260507162532 | 6 | 329 | 6.4 | 9.7 | 0.00 | 0.08 | 0.08 | 66 | 1064.7 |
| 20260507161531 | 7 | 28 | 8.0 | 9.7 | 0.00 | 0.08 | 0.08 | 64 | 1064.5 |
| 20260507160530 | 6 | 298 | 4.8 | 8.0 | 0.00 | 0.08 | 0.08 | 66 | 1064.5 |
| 20260507155528 | 6 | 341 | 6.4 | 8.0 | 0.00 | 0.08 | 0.08 | 68 | 1064.6 |
| 20260507154527 | 6 | 28 | 4.8 | 8.0 | 0.00 | 0.08 | 0.08 | 69 | 1064.7 |
| 20260507153528 | 5 | 335 | 4.8 | 8.0 | 0.00 | 0.08 | 0.08 | 68 | 1065.0 |
| 20260507152525 | 6 | 293 | 4.8 | 8.0 | 0.00 | 0.08 | 0.08 | 69 | 1064.9 |